Time,TemperatureF,DewpointF,PressureIn,WindDirection,WindDirectionDegrees,WindSpeedMPH,WindSpeedGustMPH,Humidity,HourlyPrecipIn,Conditions,Clouds,dailyrainin,SoftwareType,DateUTC
2013-06-26 00:11:00,58.0,58.0,-100.00,East,90,1.0,2.0,101,-99.99,,,-99.99,,2013-06-26 07:11:00,
2013-06-26 00:22:00,58.0,58.0,-100.00,North,0,0.0,4.0,101,-99.99,,,-99.99,,2013-06-26 07:22:00,
2013-06-26 00:43:00,57.0,57.0,-100.00,SE,135,1.0,4.0,101,-99.99,,,-99.99,,2013-06-26 07:43:00,
2013-06-26 00:53:00,57.0,57.0,-100.00,NE,45,0.0,1.0,101,-99.99,,,-99.99,,2013-06-26 07:53:00,
2013-06-26 01:11:00,57.0,57.0,-100.00,East,90,1.0,3.0,101,-99.99,,,-99.99,,2013-06-26 08:11:00,
2013-06-26 01:22:00,57.0,57.0,-100.00,East,90,0.0,1.0,101,-99.99,,,-99.99,,2013-06-26 08:22:00,
2013-06-26 01:42:00,57.0,57.0,-100.00,East,90,1.0,1.0,101,-99.99,,,-99.99,,2013-06-26 08:42:00,
2013-06-26 01:53:00,57.0,57.0,-100.00,SE,135,0.0,3.0,101,-99.99,,,-99.99,,2013-06-26 08:53:00,
2013-06-26 02:11:00,57.0,57.0,-100.00,East,90,1.0,3.0,101,-99.99,,,-99.99,,2013-06-26 09:11:00,
2013-06-26 02:22:00,57.0,57.0,-100.00,East,90,1.0,3.0,101,-99.99,,,-99.99,,2013-06-26 09:22:00,
2013-06-26 02:43:00,57.0,57.0,-100.00,SE,135,1.0,-999.0,101,-99.99,,,-99.99,,2013-06-26 09:43:00,
2013-06-26 02:53:00,57.0,57.0,-100.00,SE,135,1.0,2.0,101,-99.99,,,-99.99,,2013-06-26 09:53:00,
2013-06-26 03:12:00,57.0,57.0,-100.00,SE,135,1.0,1.0,101,-99.99,,,-99.99,,2013-06-26 10:12:00,
2013-06-26 03:34:00,57.0,57.0,-100.00,SE,135,1.0,-999.0,101,-99.99,,,-99.99,,2013-06-26 10:34:00,
2013-06-26 03:43:00,57.0,57.0,-100.00,SE,135,1.0,-999.0,101,-99.99,,,-99.99,,2013-06-26 10:43:00,
2013-06-26 03:53:00,57.0,57.0,-100.00,East,90,2.0,3.0,101,-99.99,,,-99.99,,2013-06-26 10:53:00,
2013-06-26 04:11:00,57.0,57.0,-100.00,East,90,1.0,-999.0,101,-99.99,,,-99.99,,2013-06-26 11:11:00,
2013-06-26 04:22:00,57.0,57.0,-100.00,East,90,1.0,3.0,101,-99.99,,,-99.99,,2013-06-26 11:22:00,
2013-06-26 04:44:00,57.0,57.0,-100.00,SE,135,0.0,1.0,101,-99.99,,,-99.99,,2013-06-26 11:44:00,
2013-06-26 04:52:00,57.0,57.0,-100.00,SE,135,0.0,1.0,101,-99.99,,,-99.99,,2013-06-26 11:52:00,
2013-06-26 05:11:00,57.0,57.0,-100.00,South,180,1.0,2.0,101,-99.99,,,-99.99,,2013-06-26 12:11:00,
2013-06-26 05:42:00,57.0,57.0,-100.00,SE,135,1.0,1.0,101,-99.99,,,-99.99,,2013-06-26 12:42:00,
2013-06-26 05:52:00,57.0,57.0,-100.00,South,180,1.0,1.0,101,-99.99,,,-99.99,,2013-06-26 12:52:00,
2013-06-26 06:11:00,58.0,58.0,-100.00,SE,135,0.0,3.0,101,-99.99,,,-99.99,,2013-06-26 13:11:00,
2013-06-26 06:22:00,58.0,58.0,-100.00,North,0,0.0,1.0,101,-99.99,,,-99.99,,2013-06-26 13:22:00,
2013-06-26 06:42:00,58.0,58.0,-100.00,SE,135,1.0,1.0,101,-99.99,,,-99.99,,2013-06-26 13:42:00,
2013-06-26 06:53:00,58.0,58.0,-100.00,NE,45,1.0,3.0,101,-99.99,,,-99.99,,2013-06-26 13:53:00,
2013-06-26 07:11:00,58.0,58.0,-100.00,North,0,0.0,2.0,101,-99.99,,,-99.99,,2013-06-26 14:11:00,
2013-06-26 07:23:00,58.0,58.0,-100.00,South,180,1.0,3.0,101,-99.99,,,-99.99,,2013-06-26 14:23:00,
2013-06-26 07:42:00,58.0,58.0,-100.00,SE,135,0.0,2.0,101,-99.99,,,-99.99,,2013-06-26 14:42:00,
2013-06-26 07:53:00,58.0,58.0,-100.00,West,270,1.0,3.0,101,-99.99,,,-99.99,,2013-06-26 14:53:00,
2013-06-26 08:11:00,59.0,59.0,-100.00,East,90,0.0,2.0,101,-99.99,,,-99.99,,2013-06-26 15:11:00,
2013-06-26 08:22:00,59.0,59.0,-100.00,SE,135,0.0,1.0,101,-99.99,,,-99.99,,2013-06-26 15:22:00,
2013-06-26 08:43:00,59.0,59.0,-100.00,SW,225,1.0,3.0,101,-99.99,,,-99.99,,2013-06-26 15:43:00,
2013-06-26 08:53:00,59.0,59.0,-100.00,North,0,1.0,3.0,101,-99.99,,,-99.99,,2013-06-26 15:53:00,
2013-06-26 09:11:00,59.0,59.0,-100.00,NW,315,1.0,3.0,101,-99.99,,,-99.99,,2013-06-26 16:11:00,
2013-06-26 09:22:00,59.0,59.0,-100.00,North,0,0.0,3.0,101,-99.99,,,-99.99,,2013-06-26 16:22:00,
2013-06-26 09:43:00,60.0,60.0,-100.00,SE,135,1.0,3.0,101,-99.99,,,-99.99,,2013-06-26 16:43:00,
2013-06-26 09:52:00,60.0,60.0,-100.00,North,0,1.0,4.0,99,-99.99,,,-99.99,,2013-06-26 16:52:00,
2013-06-26 10:11:00,60.0,59.0,-100.00,East,90,0.0,2.0,97,-99.99,,,-99.99,,2013-06-26 17:11:00,
2013-06-26 10:23:00,60.0,59.0,-100.00,East,90,0.0,2.0,97,-99.99,,,-99.99,,2013-06-26 17:23:00,
2013-06-26 10:43:00,61.0,59.0,-100.00,NW,315,0.0,3.0,94,-99.99,,,-99.99,,2013-06-26 17:43:00,
2013-06-26 10:52:00,61.0,59.0,-100.00,NW,315,0.0,1.0,91,-99.99,,,-99.99,,2013-06-26 17:52:00,
2013-06-26 11:11:00,61.0,58.0,-100.00,NW,315,1.0,2.0,90,-99.99,,,-99.99,,2013-06-26 18:11:00,
2013-06-26 11:22:00,61.0,58.0,-100.00,NE,45,0.0,3.0,89,-99.99,,,-99.99,,2013-06-26 18:22:00,
2013-06-26 11:43:00,62.0,58.0,-100.00,South,180,1.0,3.0,89,-99.99,,,-99.99,,2013-06-26 18:43:00,
2013-06-26 11:52:00,62.0,59.0,-100.00,SW,225,1.0,3.0,88,-99.99,,,-99.99,,2013-06-26 18:52:00,
2013-06-26 12:11:00,62.0,59.0,-100.00,SW,225,3.0,4.0,88,-99.99,,,-99.99,,2013-06-26 19:11:00,
2013-06-26 12:42:00,62.0,58.0,-100.00,SW,225,3.0,4.0,86,-99.99,,,-99.99,,2013-06-26 19:42:00,
2013-06-26 12:52:00,62.0,59.0,-100.00,North,0,1.0,4.0,91,-99.99,,,-99.99,,2013-06-26 19:52:00,
2013-06-26 13:01:00,62.0,59.0,-100.00,North,0,1.0,4.0,91,-99.99,,,-99.99,,2013-06-26 20:01:00,
2013-06-26 13:12:00,62.0,59.0,-100.00,North,0,1.0,4.0,91,-99.99,,,-99.99,,2013-06-26 20:12:00,
2013-06-26 13:22:00,63.0,60.0,-100.00,NE,45,1.0,4.0,92,-99.99,,,-99.99,,2013-06-26 20:22:00,
2013-06-26 13:33:00,63.0,60.0,-100.00,NE,45,1.0,2.0,91,-99.99,,,-99.99,,2013-06-26 20:33:00,
2013-06-26 13:43:00,63.0,60.0,-100.00,NE,45,1.0,2.0,91,-99.99,,,-99.99,,2013-06-26 20:43:00,
2013-06-26 13:52:00,62.0,60.0,-100.00,North,0,0.0,2.0,91,-99.99,,,-99.99,,2013-06-26 20:52:00,
2013-06-26 14:01:00,63.0,60.0,-100.00,North,0,0.0,1.0,91,-99.99,,,-99.99,,2013-06-26 21:01:00,
2013-06-26 14:11:00,63.0,60.0,-100.00,North,0,0.0,1.0,91,-99.99,,,-99.99,,2013-06-26 21:11:00,
2013-06-26 14:43:00,63.0,61.0,-100.00,NE,45,1.0,5.0,92,-99.99,,,-99.99,,2013-06-26 21:43:00,
2013-06-26 14:52:00,63.0,61.0,-100.00,North,0,3.0,4.0,93,-99.99,,,-99.99,,2013-06-26 21:52:00,
2013-06-26 15:11:00,63.0,61.0,-100.00,NW,315,1.0,3.0,93,-99.99,,,-99.99,,2013-06-26 22:11:00,
2013-06-26 15:21:00,63.0,61.0,-100.00,NW,315,1.0,3.0,93,-99.99,,,-99.99,,2013-06-26 22:21:00,
2013-06-26 15:43:00,65.0,62.0,-100.00,NW,315,0.0,3.0,92,-99.99,,,-99.99,,2013-06-26 22:43:00,
2013-06-26 15:52:00,65.0,61.0,-100.00,NW,315,2.0,4.0,87,-99.99,,,-99.99,,2013-06-26 22:52:00,
2013-06-26 16:01:00,66.0,60.0,-100.00,NW,315,1.0,3.0,83,-99.99,,,-99.99,,2013-06-26 23:01:00,
2013-06-26 16:11:00,66.0,60.0,-100.00,NW,315,1.0,3.0,83,-99.99,,,-99.99,,2013-06-26 23:11:00,
2013-06-26 16:43:00,68.0,61.0,-100.00,East,90,1.0,3.0,77,-99.99,,,-99.99,,2013-06-26 23:43:00,
2013-06-26 16:53:00,68.0,59.0,-100.00,East,90,3.0,6.0,72,-99.99,,,-99.99,,2013-06-26 23:53:00,
2013-06-26 17:01:00,70.0,60.0,-100.00,North,0,3.0,6.0,72,-99.99,,,-99.99,,2013-06-27 00:01:00,
2013-06-26 17:11:00,70.0,60.0,-100.00,North,0,3.0,6.0,72,-99.99,,,-99.99,,2013-06-27 00:11:00,
2013-06-26 17:22:00,69.0,56.0,-100.00,North,0,2.0,6.0,63,-99.99,,,-99.99,,2013-06-27 00:22:00,
2013-06-26 17:42:00,70.0,55.0,-100.00,East,90,2.0,8.0,59,-99.99,,,-99.99,,2013-06-27 00:42:00,
2013-06-26 17:53:00,71.0,57.0,-100.00,South,180,1.0,5.0,62,-99.99,,,-99.99,,2013-06-27 00:53:00,
2013-06-26 18:11:00,72.0,56.0,-100.00,SW,225,2.0,4.0,58,-99.99,,,-99.99,,2013-06-27 01:11:00,
2013-06-26 18:21:00,72.0,58.0,-100.00,North,0,1.0,4.0,61,-99.99,,,-99.99,,2013-06-27 01:21:00,
2013-06-26 18:42:00,72.0,59.0,-100.00,North,0,2.0,4.0,63,-99.99,,,-99.99,,2013-06-27 01:42:00,
2013-06-26 18:53:00,72.0,58.0,-100.00,North,0,4.0,6.0,61,-99.99,,,-99.99,,2013-06-27 01:53:00,
2013-06-26 19:11:00,73.0,56.0,-100.00,North,0,3.0,6.0,56,-99.99,,,-99.99,,2013-06-27 02:11:00,
2013-06-26 19:22:00,72.0,57.0,-100.00,NW,315,1.0,4.0,60,-99.99,,,-99.99,,2013-06-27 02:22:00,
2013-06-26 19:32:00,72.0,58.0,-100.00,NW,315,0.0,4.0,61,-99.99,,,-99.99,,2013-06-27 02:32:00,
2013-06-26 19:42:00,72.0,58.0,-100.00,NW,315,0.0,4.0,61,-99.99,,,-99.99,,2013-06-27 02:42:00,
2013-06-26 19:52:00,71.0,60.0,-100.00,North,0,1.0,4.0,68,-99.99,,,-99.99,,2013-06-27 02:52:00,
2013-06-26 20:11:00,69.0,62.0,-100.00,East,90,1.0,3.0,77,-99.99,,,-99.99,,2013-06-27 03:11:00,
2013-06-26 20:21:00,68.0,62.0,-100.00,East,90,2.0,3.0,82,-99.99,,,-99.99,,2013-06-27 03:21:00,
2013-06-26 20:42:00,67.0,62.0,-100.00,SE,135,1.0,5.0,85,-99.99,,,-99.99,,2013-06-27 03:42:00,
2013-06-26 20:52:00,65.0,62.0,-100.00,East,90,1.0,4.0,87,-99.99,,,-99.99,,2013-06-27 03:52:00,
2013-06-26 21:11:00,65.0,61.0,-100.00,East,90,1.0,3.0,88,-99.99,,,-99.99,,2013-06-27 04:11:00,
2013-06-26 21:22:00,64.0,61.0,-100.00,East,90,2.0,3.0,90,-99.99,,,-99.99,,2013-06-27 04:22:00,
2013-06-26 21:42:00,63.0,60.0,-100.00,East,90,3.0,3.0,91,-99.99,,,-99.99,,2013-06-27 04:42:00,
2013-06-26 21:52:00,63.0,60.0,-100.00,East,90,1.0,4.0,91,-99.99,,,-99.99,,2013-06-27 04:52:00,
2013-06-26 22:12:00,62.0,60.0,-100.00,East,90,2.0,4.0,92,-99.99,,,-99.99,,2013-06-27 05:12:00,
2013-06-26 22:32:00,62.0,59.0,-100.00,SE,135,0.0,3.0,90,-99.99,,,-99.99,,2013-06-27 05:32:00,
2013-06-26 22:42:00,62.0,59.0,-100.00,SE,135,0.0,3.0,90,-99.99,,,-99.99,,2013-06-27 05:42:00,
2013-06-26 22:53:00,61.0,59.0,-100.00,SW,225,1.0,2.0,93,-99.99,,,-99.99,,2013-06-27 05:53:00,
2013-06-26 23:12:00,61.0,59.0,-100.00,South,180,1.0,2.0,94,-99.99,,,-99.99,,2013-06-27 06:12:00,
2013-06-26 23:22:00,61.0,60.0,-100.00,South,180,0.0,3.0,95,-99.99,,,-99.99,,2013-06-27 06:22:00,
2013-06-26 23:43:00,61.0,59.0,-100.00,East,90,1.0,3.0,95,-99.99,,,-99.99,,2013-06-27 06:43:00,
2013-06-26 23:53:00,61.0,59.0,-100.00,SE,135,1.0,3.0,94,-99.99,,,-99.99,,2013-06-27 06:53:00,